Regional Weather Roundup
Issued by NWS

Home | Current Version | Previous Version | Text Only | Print | Product List | Glossary Off
Versions: 1 2 3 4 5 6 7 8 9 10 11 12 13 14 15 16 17 18 19 20 21 22 23 24 25 26 27 28 29 30 31 32 33 34 35 36 37 38 39 40 41 42 43 44 45 46 47 48 49 50

000
ASUS45 KBOU 180707
RWRCO

WEATHER ROUNDUP FOR COLORADO
NATIONAL WEATHER SERVICE DENVER/BOULDER CO
100 AM MDT THU SEP 18 2014

NOTE: "FAIR" INDICATES FEW OR NO CLOUDS BELOW 12000 FEET WITH NO
SIGNIFICANT WEATHER AND/OR OBSTRUCTIONS TO VISIBILITY.

COZ001>005-013-030-031-180800-
...NORTHWEST COLORADO...

CITY           SKY/WX    TMP DP  RH WIND       PRES   REMARKS
CRAIG          CLEAR     47  39  74 CALM      30.13F
HAYDEN         CLEAR     55  37  50 E9        30.15S
MEEKER         CLEAR     50  39  66 NE5       30.15S
MOUNT WERNER   NOT AVBL
STEAMBOAT SPGS CLEAR     52  40  63 CALM      30.18S
WALDEN         CLEAR     41  32  70 SE7       30.28S
$$

COZ006>008-011-180800-
...WEST CENTRAL VALLEYS...

CITY           SKY/WX    TMP DP  RH WIND       PRES   REMARKS
GRAND JUNCTION CLEAR     60  39  45 SE6       30.02R
MONTROSE       CLEAR     62  43  49 SE8       30.11S
EAGLE          CLEAR     52  37  58 SE3       30.20S
RIFLE          CLEAR     57  43  59 CALM      30.08S
DELTA          CLEAR     66  42  41 CALM      30.07S
NUCLA          CLEAR     59  45  58 E9        30.17S
$$

COZ017>023-064>068-180800-
...SOUTHWEST COLORADO...

CITY           SKY/WX    TMP DP  RH WIND       PRES   REMARKS
DURANGO        CLEAR     51  47  86 N3        30.19S
CORTEZ         CLEAR     51  48  89 N3        30.14F
PAGOSA SPRINGS CLEAR     46  43  90 CALM      30.26F
TELLURIDE      NOT AVBL
WOLF CREEK PAS CLEAR     45  32  61 NE8       30.53F
$$

COZ009-010-012-014-032>034-037-058>063-180800-
...CENTRAL COLORADO...

CITY           SKY/WX    TMP DP  RH WIND       PRES   REMARKS
ASPEN          CLEAR     52  35  52 CALM      30.25S
BUENA VISTA    CLEAR     51  35  54 W7        30.29S
COPPER MTN     CLEAR     52  30  43 S16       30.56S
BERTHOUD PASS  FAIR      43  41  93 W8        30.61S
COTTONWOOD PAS CLEAR     57  32  38 W7        30.41S
GUNNISON       CLEAR     52  36  54 NW5       30.28S
KREMMLING      CLEAR     43  36  75 CALM      30.27S
LEADVILLE      CLEAR     37  29  72 E3        30.40F
MONARCH PASS   CLEAR     46  32  57 E10       30.64F
SALIDA         CLEAR     54  39  56 W8        30.33S
SUNLIGHT       CLEAR     54  32  43 NE3       30.47S
WILKERSON PASS NOT AVBL
$$

COZ069>075-180800-
...SAN LUIS VALLEY/SANGRE DE CRISTO MOUNTAINS...

CITY           SKY/WX    TMP DP  RH WIND       PRES   REMARKS
ALAMOSA        CLEAR     48  43  82 SE3       30.24S
LA VETA PASS   NOT AVBL
SAGUACHE       CLEAR     48  32  53 N5        30.28S
$$

COZ035-036-038>040-180800-
...NORTHERN COLORADO FRONT RANGE...

CITY           SKY/WX    TMP DP  RH WIND       PRES   REMARKS
DENVER INTL AP PTCLDY    60  44  55 S10       30.08R
DMNS CITY PARK   N/A     63  45  52 S7        30.07S
AURORA         PTCLDY    61  45  55 S7        30.10F
FRONT RANGE AP CLEAR     61  45  55 S7        30.09S
ERIE MUNI ARPT CLEAR     53  46  77 CALM      30.06S
BOULDER MUN AP CLEAR     70  37  30 SW8       30.06S
CENTENNIAL     PTCLDY    58  44  60 S7        30.11F
BROOMFIELD     CLEAR     63  41  45 S3        30.09S
FORT COLLINS   CLEAR     61  46  59 N8        30.06F
LONGMONT       CLEAR     57  46  66 CALM      30.06S
$$

COZ041-046-047-076>085-087-088-180800-
...PIKES PEAK/PALMER DIVIDE AND SOUTHERN FOOTHILLS...

CITY           SKY/WX    TMP DP  RH WIND       PRES   REMARKS
COLO. SPRINGS  CLEAR     62  41  46 N7        30.14F
A. F. ACADEMY  CLEAR     53  40  61 N10       30.16F
ELLICOTT       NOT AVBL
FALCON         CLEAR     60  38  45 N6        30.18F
FORT CARSON    CLEAR     62  40  45 N12       30.10S
LIMON          CLEAR     54  42  64 NW5       30.07F
MONUMENT HILL  CLEAR     50  39  66 W3        30.19F
TRINIDAD       PTCLDY    61  43  51 W17       30.10S
$$

COZ042>045-048>051-090-091-180800-
...NORTHEAST COLORADO...

CITY           SKY/WX    TMP DP  RH WIND       PRES   REMARKS
GREELEY ARPT   CLEAR     54  43  66 CALM      30.04F
AKRON          PTCLDY    59  45  59 W10       30.03R
BURLINGTON     PTCLDY    60  52  74 S8        30.00S
WRAY           PTCLDY    62  60  93 CALM      29.98S
STERLING       PTCLDY    59  50  72 CALM      29.98F
HOLYOKE        PTCLDY    64  61  88 SE8       29.99S
FORT MORGAN    PTCLDY    56  45  66 S3        30.02F
$$

COZ086-089-092>099-180800-
...SOUTHEAST COLORADO...

CITY           SKY/WX    TMP DP  RH WIND       PRES   REMARKS
PUEBLO         CLEAR     58  41  53 CALM      30.02S
LA JUNTA       CLEAR     64  42  44 SW6       29.98S
LAMAR          CLEAR     56  49  77 CALM      29.95R
SPRINGFIELD      N/A     58  54  86 SW7       30.00S
$$


USA.gov is the U.S. government's official web portal to all federal, state and local government web resources and services.